Theta_e
313 314 314 314 313 313 313 313 313 313 313 313 312 312 312 312 310 314 318 317 317 316 306 315 311 311 315 318 318 318 319 319 320 320 321 323 322 324 325 324 327 330 333 334 344
312 312 313 312 312 312 312 312 312 312 312 312 312 312 311 311 313 316 316 316 315 311 310 313 313 313 316 317 318 319 319 319 321 321 321 321 321 322 323 323 325 328 332 332 338
311 312 312 312 312 311 311 311 311 312 312 312 311 311 311 311 318 320 314 316 314 310 312 312 312 314 315 317 318 318 318 319 319 319 320 320 320 321 321 322 324 325 329 332 342
311 311 311 310 311 311 311 311 311 311 311 311 311 311 310 314 323 321 313 314 315 312 313 313 313 312 314 316 318 318 319 318 319 319 319 318 318 318 319 320 322 323 327 331 331
310 310 310 310 310 310 310 310 310 310 310 310 310 310 312 318 320 319 315 319 316 314 317 316 315 313 314 315 317 317 318 318 318 318 318 317 317 318 319 320 321 321 325 330 330
310 310 310 310 310 310 310 310 310 310 309 309 310 310 313 321 319 320 316 315 314 317 316 316 316 316 315 316 316 317 317 317 317 317 317 316 317 317 318 318 319 320 321 324 328
309 309 309 309 309 309 309 309 309 309 309 310 312 311 315 320 319 318 318 316 318 318 318 316 317 316 316 316 316 316 315 316 316 317 317 317 316 316 317 318 318 318 319 321 323
309 309 309 308 309 308 308 308 308 308 310 312 311 312 318 318 317 319 318 318 318 319 317 316 316 315 316 317 317 316 316 317 318 318 318 317 317 318 319 318 317 318 319 319 322
307 307 308 308 309 308 308 307 307 309 311 311 312 314 322 317 317 319 321 320 319 319 317 314 315 314 315 316 318 319 318 319 319 320 320 319 319 319 320 319 318 318 318 319 320
307 307 306 306 307 308 307 307 309 311 312 312 315 317 318 320 319 317 320 320 320 318 315 313 314 314 316 317 319 319 319 318 319 321 321 321 320 320 321 321 319 318 318 319 320
306 306 306 305 306 307 307 310 317 316 314 321 320 320 320 319 317 317 319 319 318 315 315 313 313 314 316 317 317 320 320 319 320 320 322 322 322 322 322 322 321 320 319 319 320
306 305 305 305 306 306 308 313 315 317 319 320 320 320 319 319 320 318 317 320 317 316 315 314 314 315 316 317 318 319 321 321 321 321 322 322 323 323 323 322 321 320 320 320 320
306 304 304 304 306 310 313 312 311 313 321 319 319 321 321 320 321 321 317 318 319 317 315 315 315 315 316 318 319 320 320 321 321 322 322 322 323 323 322 322 321 321 321 321 321
304 304 304 304 308 310 309 311 312 317 322 317 319 320 320 321 322 321 317 318 318 317 315 315 316 315 318 319 320 321 320 319 320 322 323 324 324 325 324 322 321 323 323 324 324
304 303 303 304 306 309 309 309 312 318 322 316 321 320 320 322 321 321 318 318 319 317 315 316 317 318 318 318 319 320 319 319 320 321 322 323 324 323 324 323 323 323 324 324 324
304 303 303 306 308 309 309 309 312 319 318 317 322 324 323 322 322 322 321 319 318 319 318 318 319 319 319 319 319 319 320 320 321 321 323 323 324 323 325 324 323 323 323 323 324
303 302 303 307 310 310 311 311 313 314 313 315 316 321 324 324 323 321 322 323 319 320 320 318 319 319 319 319 319 320 321 323 322 322 322 322 323 324 326 323 324 324 323 324 326
302 303 308 310 310 310 311 314 314 310 312 314 316 323 325 326 324 322 325 324 319 319 318 319 320 320 318 319 319 319 321 323 322 322 321 321 325 324 325 325 325 326 326 326 328
303 309 310 311 312 312 314 316 314 313 312 312 313 316 317 320 326 324 324 325 323 319 319 321 322 319 319 318 320 320 322 321 323 323 325 326 324 327 326 325 324 326 328 329 330
306 310 310 311 313 313 316 314 312 311 311 313 315 319 323 319 325 325 325 322 321 320 318 320 322 320 318 318 319 320 321 324 322 326 330 328 328 326 326 325 324 325 328 330 331
308 310 314 313 313 314 318 313 313 313 312 311 313 316 318 325 323 323 326 323 320 318 318 320 322 321 319 319 320 320 322 323 323 323 327 330 327 327 329 325 325 325 328 329 330
307 311 311 312 315 317 318 316 315 317 316 316 316 316 321 322 324 322 324 325 324 322 318 320 323 326 321 319 319 321 321 324 327 329 328 326 327 326 325 326 326 326 329 328 327
308 310 309 310 316 318 316 315 315 318 316 317 320 321 319 323 324 322 322 320 323 327 322 324 323 333 330 327 323 323 324 322 324 330 329 334 329 326 325 325 325 326 327 327 326
308 310 310 314 315 313 315 314 315 315 315 315 319 320 322 324 321 323 323 318 320 326 328 326 323 325 332 329 325 324 326 327 328 331 331 326 325 326 325 324 325 325 326 326 325
308 311 310 312 311 312 312 314 314 318 314 314 320 320 321 322 322 323 322 322 321 327 324 325 325 326 327 326 327 326 322 324 326 325 328 326 328 327 328 326 324 325 324 323 322
308 307 306 308 310 311 312 316 316 315 314 317 317 319 320 319 322 319 323 323 324 326 327 327 330 330 331 327 325 326 326 326 326 326 325 324 325 325 324 324 323 323 323 323 322
304 304 306 306 309 310 313 311 312 312 315 315 316 319 318 316 320 320 320 321 320 325 328 330 332 332 330 324 325 331 324 323 325 324 322 322 321 322 323 323 323 324 322 321 321
Wind_Speed
18 17 17 17 17 17 18 18 18 18 17 18 19 19 19 20 22 20 21 18 8 25 11 9 18 20 19 18 20 18 16 19 24 22 18 18 10 10 17 22 8 10 13 6 4
19 19 18 18 18 18 19 19 19 19 18 18 20 21 22 22 23 28 33 24 25 15 20 18 17 19 16 18 17 16 15 25 19 17 16 12 14 13 14 13 15 18 9 8 9
19 19 19 18 18 18 18 18 18 19 19 19 20 20 21 19 22 17 2 30 27 19 22 19 17 18 20 16 20 20 21 17 19 11 11 13 14 11 16 17 15 15 13 8 10
19 18 18 19 20 20 20 19 19 18 19 20 20 20 18 13 8 9 2 14 22 22 19 21 16 20 21 23 20 21 19 21 20 6 13 17 16 18 17 18 17 15 14 1 7
20 19 20 20 21 21 21 23 22 21 21 21 20 18 13 12 20 16 9 16 19 22 23 19 20 20 22 19 19 22 21 15 19 17 15 15 18 19 19 16 16 19 12 11 10
21 22 23 23 22 21 21 22 23 24 24 22 18 12 12 22 20 13 10 19 20 25 22 20 14 18 18 20 17 17 17 21 17 17 18 20 20 19 20 18 17 18 19 14 13
23 23 24 23 23 23 23 22 22 23 25 18 13 11 16 23 7 12 16 20 21 21 16 18 16 13 12 17 15 17 13 16 18 18 19 16 21 23 19 19 21 20 21 20 21
22 22 23 23 22 22 23 23 25 25 16 14 9 10 10 9 28 16 19 21 21 19 18 13 16 14 18 12 5 16 18 18 21 22 19 16 18 17 17 19 22 23 19 21 23
27 25 25 25 25 24 25 26 27 11 8 8 10 9 11 3 17 27 20 22 21 18 16 14 15 16 17 17 13 16 18 21 20 10 12 16 15 14 13 14 16 21 19 22 23
28 30 30 30 28 30 33 29 13 6 5 8 9 7 11 16 14 22 24 20 19 17 15 14 12 16 18 16 17 20 19 20 17 16 11 14 18 14 15 11 13 17 19 21 23
28 30 33 36 31 29 30 16 5 6 10 11 14 13 12 10 13 22 27 20 21 18 17 21 18 21 25 23 22 20 19 19 15 12 7 12 14 16 14 13 13 14 18 19 22
26 30 34 35 33 34 18 7 13 11 16 25 26 24 28 14 12 17 30 21 19 21 23 16 23 24 23 23 21 20 13 10 8 10 8 12 14 14 12 8 11 14 14 19 22
27 29 32 35 34 15 10 20 23 19 10 21 26 30 28 28 20 22 28 28 23 25 26 21 19 26 23 19 19 18 17 16 14 15 13 13 17 18 15 10 10 9 14 16 19
30 31 31 33 19 14 20 9 7 12 10 19 22 18 28 23 32 23 34 30 17 26 26 24 24 25 19 21 18 18 18 15 12 11 12 11 13 10 12 11 11 13 13 15 17
32 33 33 25 24 14 15 12 12 10 8 8 12 5 8 29 11 33 36 31 25 22 21 25 24 16 23 20 19 16 12 15 16 15 15 17 9 10 10 11 13 14 15 14 13
35 36 35 24 18 25 19 14 9 8 14 7 11 12 16 25 30 27 29 30 27 23 23 25 21 19 16 19 18 14 13 11 12 13 15 19 15 12 6 8 10 15 15 14 8
38 42 38 22 11 9 10 10 8 12 8 17 23 17 20 19 26 22 30 29 28 26 23 23 26 20 17 20 18 15 11 10 12 13 14 18 16 5 12 4 4 4 13 9 5
40 40 25 19 18 11 14 11 19 12 27 22 18 10 14 22 24 27 29 25 32 25 17 20 23 24 16 21 22 23 18 12 17 14 15 19 10 3 14 9 6 8 6 9 11
38 24 19 10 5 10 8 14 20 25 26 28 20 25 22 10 8 11 25 27 30 30 25 19 24 26 22 19 20 19 20 18 19 13 9 8 9 13 13 10 10 11 10 11 12
26 28 22 6 6 9 10 22 26 26 26 24 25 12 26 13 12 6 13 24 26 31 24 23 17 21 24 21 22 21 19 17 12 13 15 12 13 11 19 16 12 12 10 11 14
18 8 8 4 7 4 10 21 23 21 23 24 25 19 19 8 1 8 8 17 21 26 26 23 12 17 15 19 23 18 16 14 13 13 10 10 8 13 9 6 12 12 13 13 14
11 8 7 8 4 5 11 14 16 21 20 21 18 10 28 3 4 9 7 10 18 18 26 20 12 9 24 20 23 21 20 18 10 11 10 11 2 10 7 7 11 14 16 13 14
6 14 16 6 6 10 12 16 23 20 15 20 8 19 16 13 11 13 8 8 12 32 26 24 11 12 2 10 11 16 16 19 11 4 10 6 4 11 10 4 6 10 16 15 13
5 6 6 3 7 5 17 19 14 8 11 19 12 17 11 14 10 8 12 3 20 21 14 22 17 17 12 6 16 19 19 24 11 2 10 10 15 10 13 11 4 4 10 11 9
4 5 7 7 15 20 19 21 17 10 5 6 8 16 5 6 7 11 14 16 14 12 8 15 20 15 6 10 4 8 18 7 15 8 9 8 17 14 20 15 10 9 10 12 11
4 4 3 11 17 19 14 13 14 17 6 9 12 7 9 4 9 5 5 6 2 5 8 3 12 11 14 14 7 5 9 9 11 13 13 12 5 13 11 5 7 11 13 13 11
7 6 5 8 14 14 11 12 18 17 4 6 8 10 8 9 3 8 14 10 4 5 7 8 8 12 9 9 6 10 15 15 13 14 9 11 9 8 6 8 9 12 7 6 7
Wind_Direction
335 331 329 327 325 321 318 315 314 313 312 314 314 313 309 306 305 282 253 238 217 239 230 222 205 217 227 232 225 225 245 241 243 245 248 255 239 228 257 250 257 252 230 356 34
332 329 328 325 322 320 318 314 312 310 309 308 308 312 312 309 297 276 257 240 227 237 213 203 197 204 215 220 209 224 228 242 245 257 262 250 250 254 246 236 235 246 202 242 231
330 327 326 324 320 318 318 316 313 310 306 303 304 307 311 313 292 256 160 220 224 204 214 214 205 205 222 219 210 220 241 242 246 264 281 282 264 252 247 248 232 225 232 182 216
331 328 326 324 323 322 321 320 317 310 307 303 300 303 304 299 263 69 346 221 210 189 210 218 220 206 223 225 229 231 241 245 264 242 239 256 265 262 250 252 264 251 253 12 242
333 330 327 326 323 321 321 321 317 313 309 303 295 294 294 236 248 270 294 174 176 181 203 208 216 211 221 231 226 231 239 237 245 255 248 250 250 255 249 249 252 267 231 215 256
335 332 330 327 325 321 318 315 313 310 306 300 285 272 246 257 256 185 178 165 179 188 203 210 217 220 234 242 230 238 236 253 246 242 244 249 254 251 244 248 245 253 262 246 251
339 336 332 328 324 320 318 313 307 306 308 296 273 233 254 242 236 207 195 195 188 200 208 215 228 245 234 253 242 241 250 245 243 241 243 251 256 254 258 254 233 233 242 246 241
334 331 329 326 321 316 312 308 305 304 299 290 232 215 253 269 239 239 203 205 206 205 225 230 231 248 240 238 224 228 232 247 231 216 227 226 255 254 236 236 239 234 235 239 230
338 333 328 323 319 316 313 306 303 295 299 165 165 220 264 194 223 219 218 202 197 207 212 230 222 225 216 240 227 217 234 222 243 178 218 197 248 245 245 239 236 237 225 242 226
333 335 334 330 321 319 319 315 299 216 169 185 258 203 242 239 217 209 202 197 195 191 192 199 204 214 220 211 223 215 217 251 214 173 190 234 234 255 267 237 238 239 230 235 227
328 330 330 328 323 318 321 313 196 190 211 219 198 222 296 215 148 192 193 187 193 193 194 197 202 209 207 215 230 239 228 223 205 223 208 247 260 258 258 251 238 231 229 233 228
323 327 328 326 320 320 300 251 302 318 289 224 248 242 248 260 193 193 189 191 196 203 206 182 213 213 224 215 228 248 245 227 241 236 233 270 260 260 256 250 245 245 231 232 219
327 329 330 330 321 306 249 276 283 292 265 266 242 232 233 225 228 187 189 201 200 206 207 207 213 221 212 218 215 228 226 226 240 211 213 267 260 247 239 226 216 245 227 217 202
330 331 331 331 311 337 293 317 283 276 272 270 221 238 226 215 226 224 191 201 198 212 211 221 231 196 209 218 209 217 219 246 248 253 251 275 253 194 211 188 209 211 220 224 192
323 325 327 319 295 287 296 320 312 287 274 312 124 133 211 198 173 212 180 205 215 212 219 212 233 201 207 210 208 229 212 222 224 231 256 255 235 287 166 199 199 212 212 220 222
318 319 318 308 265 263 273 280 277 236 249 250 155 198 209 201 224 186 183 213 222 221 222 225 209 213 207 210 212 218 230 238 244 243 237 243 252 235 174 230 192 191 206 213 207
317 316 312 281 255 333 300 218 231 237 280 237 244 218 207 194 211 225 188 193 210 215 222 213 235 204 219 213 195 205 214 213 212 219 235 232 226 226 155 235 110 235 179 176 169
323 318 299 267 261 257 257 222 240 255 242 268 295 238 178 269 196 218 186 197 210 211 216 217 214 206 204 220 209 211 209 230 209 210 225 224 227 247 141 109 101 110 146 151 172
325 313 291 266 239 210 223 236 246 246 261 278 270 278 262 256 149 339 196 207 203 214 218 206 225 199 202 218 227 192 214 231 264 294 266 328 228 126 157 176 155 141 150 159 144
315 301 280 158 212 215 237 248 268 275 273 270 272 175 275 284 171 196 261 212 208 203 218 234 220 215 194 209 215 241 204 208 234 238 253 178 223 273 170 170 173 156 164 144 137
298 301 93 91 146 210 241 258 259 257 246 259 276 285 267 162 74 249 269 269 232 205 215 226 263 208 194 200 206 202 220 233 229 232 234 261 214 94 9 178 159 165 149 153 138
307 286 114 174 257 222 253 307 290 300 301 299 295 179 262 174 149 213 231 269 317 255 214 220 234 215 205 189 219 200 208 223 200 218 276 267 139 297 150 289 172 153 140 151 160
294 290 272 204 263 298 293 301 295 328 302 297 296 306 271 173 198 197 220 257 309 285 200 207 212 186 62 283 211 194 222 224 225 16 204 235 148 354 0 318 168 151 149 154 146
284 295 353 229 304 326 308 309 307 24 342 350 292 284 236 258 209 173 220 241 261 280 330 202 210 218 205 168 191 207 187 199 169 116 229 223 249 235 272 263 273 205 139 123 150
274 311 15 316 324 315 316 301 324 349 338 298 283 234 305 267 184 229 222 199 264 318 237 207 209 225 94 160 119 232 224 216 248 222 255 239 192 223 245 189 165 126 146 137 138
307 337 295 300 312 314 313 344 343 325 333 344 317 311 292 252 209 144 293 174 201 257 206 124 197 253 138 176 175 236 225 244 232 251 256 258 188 280 154 107 104 151 168 165 159
323 286 281 295 309 308 318 305 310 316 337 207 302 305 41 338 295 152 182 187 175 274 164 175 163 196 198 170 168 220 220 223 236 216 237 250 249 209 197 162 148 174 163 164 138